Location: Observatory
(52.1446°N, 0.4624°W)
Time: 04:51:39
(UTC+00:00)

ISS - Pass Details

Date: 09 December 2019
Orbit: 411 x 421 km, 51.6° (Epoch: 15 December)

Event Time Altitude Azimuth Distance (km) Brightness Sun altitude
Rises 18:10:23 0° 279° (W) 2,360 1.3 -20.3°
Reaches altitude 10° 18:13:14 10° 252° (WSW) 1,495 0.2 -20.7°
Maximum altitude 18:15:03 14° 220° (SW) 1,278 -0.7 -21.0°
Drops below altitude 10° 18:16:51 10° 187° (S) 1,493 -0.8 -21.2°
Enters shadow 18:18:09 - 172° (S) 1,839 -0.5 -21.4°
